Point Salines, Grenada

12:03 AM AST on June 27, 2017 (GMT -0400)
Point Salines International

Weather History for TGPY - March, 2012

Change the Weather History Date:

Saturday, March 17, 2012

  Actual Average Record
Temperature  
Mean Temperature 78 °F -  
Max Temperature 84 °F 84 °F 87 °F (2005)
Min Temperature 72 °F 75 °F 72 °F (2017)
Cooling Degree Days 13    
Growing Degree Days 28 (Base 50)    
Moisture  
Dew Point 73 °F    
Average Humidity 82    
Maximum Humidity 100    
Minimum Humidity 66    
Precipitation  
Precipitation 0.00 in - - ()
Sea Level Pressure  
Sea Level Pressure 29.96 in    
Wind  
Wind Speed 6 mph ()    
Max Wind Speed 16 mph    
Max Gust Speed -    
Visibility 6.6 miles    
Events      
Averages and records for this station are not official NWS values.
T = Trace of Precipitation, MM = Missing Value Source: Averaged Metar Reports

Daily Weather History Graph

Daily Weather History Graph

Search for Another Location

Airport or City:

Trip Planner

Search our weather history database for the weather conditions in past years. The results will help you decide how hot, cold, wet, or windy it might be!

Date:

Astronomy

Mar. 17, 2012 Rise Set
Actual Time 6:12 AM AST 6:17 PM AST
Civil Twilight 5:51 AM AST 6:38 PM AST
Nautical Twilight 5:27 AM AST 7:03 PM AST
Astronomical Twilight 5:02 AM AST 7:28 PM AST
Moon 2:25 AM AST (3/17) 2:19 PM AST (3/17)
Length of Visible Light 12h 47m
Length of Day
12h 04m
Waning Crescent, 23% of the Moon is Illuminated
Mar 17
Waning Crescent
Mar 22
New
Mar 30
First Quarter
Apr 6
Full
Apr 13
Last Quarter

Hourly Weather History & Observations

Time (AST) Temp. Heat Index Dew Point Humidity Pressure Visibility Wind Dir Wind Speed Gust Speed Precip Events Conditions
12:00 AM 75.2 °F - 75.2 °F 100% 29.98 in 6.2 mi East 5.8 mph - N/A   Mostly Cloudy
1:00 AM 77.0 °F - 73.4 °F 89% 29.98 in 6.2 mi East 5.8 mph - N/A   Scattered Clouds
2:00 AM 76 °F - 74 °F 90% 29.95 in 7 mi East 6.9 mph - -   Widespread Dust
2:00 AM 77.0 °F - 73.4 °F 89% 29.95 in 6.2 mi East 6.9 mph - N/A   Scattered Clouds
3:00 AM 77.0 °F - 73.4 °F 89% 29.95 in 6.2 mi Variable 2.3 mph - N/A   Scattered Clouds
4:00 AM 77.0 °F - 73.4 °F 89% 29.95 in 6.2 mi Variable 2.3 mph - N/A   Scattered Clouds
5:00 AM 76 °F - 73 °F 88% 29.95 in 9 mi East 4.6 mph - -   Widespread Dust
5:00 AM 77.0 °F - 73.4 °F 89% 29.95 in 6.2 mi East 4.6 mph - N/A   Scattered Clouds
6:00 AM 77.0 °F - 71.6 °F 83% 29.95 in 6.2 mi East 5.8 mph - N/A   Scattered Clouds
7:00 AM 77.0 °F - 73.4 °F 89% 29.98 in 6.2 mi East 5.8 mph - N/A   Scattered Clouds
8:00 AM 80 °F - 73 °F 73% 29.99 in 9 mi 3.5 mph - -   Widespread Dust
8:00 AM 80.6 °F 85.4 °F 73.4 °F 79% 29.98 in 6.2 mi Variable 3.5 mph - N/A   Scattered Clouds
9:00 AM 80.6 °F 85.4 °F 73.4 °F 79% 29.98 in 6.2 mi ESE 8.1 mph - N/A   Scattered Clouds
10:00 AM 86.0 °F 95.1 °F 75.2 °F 70% 30.01 in 6.2 mi East 16.1 mph - N/A   Mostly Cloudy
11:00 AM 84.2 °F 89.6 °F 71.6 °F 66% 30.01 in 6.2 mi East 12.7 mph - N/A   Mostly Cloudy
12:00 PM 84.2 °F 89.6 °F 71.6 °F 66% 29.98 in 6.2 mi East 16.1 mph - N/A   Scattered Clouds
1:00 PM 84.2 °F 90.9 °F 73.4 °F 70% 29.95 in 6.2 mi East 11.5 mph - N/A   Mostly Cloudy
2:00 PM 84.2 °F 90.9 °F 73.4 °F 70% 29.95 in 6.2 mi East 13.8 mph - N/A   Mostly Cloudy
3:00 PM 82.4 °F 88.2 °F 73.4 °F 74% 29.92 in 6.2 mi ESE 15.0 mph - N/A   Mostly Cloudy
4:00 PM 82.4 °F 88.2 °F 73.4 °F 74% 29.92 in 6.2 mi ESE 13.8 mph - N/A   Mostly Cloudy
5:00 PM 82 °F - 73 °F 67% 29.93 in 6 mi East 11.5 mph - -   Mostly Cloudy
5:00 PM 82.4 °F 88.2 °F 73.4 °F 74% 29.92 in 5.6 mi East 11.5 mph - N/A   Mostly Cloudy
6:00 PM 78.8 °F - 73.4 °F 83% 29.92 in 6.2 mi East 8.1 mph - N/A   Scattered Clouds
7:00 PM 77.0 °F - 71.6 °F 83% 29.92 in 6.2 mi East 6.9 mph - N/A   Mostly Cloudy
8:00 PM 77 °F - 73 °F 83% 29.95 in 9 mi East 6.9 mph - -   Widespread Dust
8:00 PM 77.0 °F - 73.4 °F 89% 29.95 in 6.2 mi East 6.9 mph - N/A   Mostly Cloudy
9:00 PM 77.0 °F - 73.4 °F 89% 29.95 in 6.2 mi East 5.8 mph - N/A   Mostly Cloudy
10:00 PM 77.0 °F - 73.4 °F 89% 29.98 in 6.2 mi East 5.8 mph - N/A   Mostly Cloudy
11:00 PM 77 °F - 73 °F 83% 29.98 in 9 mi East 4.6 mph - -   Widespread Dust
11:00 PM 77.0 °F - 73.4 °F 89% 29.98 in 6.2 mi East 4.6 mph - N/A   Mostly Cloudy